Location: Kielce
(50.8833°N, 20.6167°E)
Time: 22:24:57
(UTC+02:00)

SR - Pass Details

Date: 22 April 2021
Orbit: 573 x 882 km, 66.7° (Epoch: 09 May)

Event Time Altitude Azimuth Distance (km) Brightness Sun altitude
Rises 10:21:01 0° 271° (W) 3,427 ? 42.7°
Reaches altitude 10° 10:24:01 10° 286° (WNW) 2,520 ? 43.0°
Maximum altitude 10:28:37 23° 337° (NNW) 1,791 ? 43.6°
Drops below altitude 10° 10:33:16 10° 29° (NNE) 2,546 ? 44.1°
Sets 10:36:19 0° 44° (NE) 3,471 ? 44.4°
